Startseite
Über Mich
AHP4
Galerie
Sehschlangen
Tourenbuch
Bookmarks
Elektronik
Bewertung
Geschichten
[Tagesmessung] [Jahreswerte] [Information]

Messwerte vom 23.11.2021

Die letzten Messwerte von 23:58:47 Uhr:
KategorieMesswert
Temperatur [°C]6
Luftdruck [mBar]1010
Sonneneinstrahlung0
Wind [km/h]4 aus Südwest
Niederschlag [l/m²]0
rel.Luftfeucht.96.6%
CO2 [ppm]594

Diagramme
Messwerte vom 23.11.2021
Tagesaggregation
KategorieMinimumMaximumSchnittSumme
Temperatur [°C]064.8256
Luftdruck [mBar]101010121010.5420
Sonneneinstrahlung19048.9370
Wind [km/h]12
rF [%]96.696.696.6
Niederschlag [l/m²]1.03
CO2 [ppm]401621522.4
Einordnung alsKalter Tag

Messungen an benachbarten Tagen: Zur Jahresaggregation 2021
Tabelle aller Messwerte
UhrzeitTemperatur [°C]Luftdruck [mBar]SonneWind [km/h]RichtungRegen [l/m²]rF [%]CO2 [ppm]
00:01:47 0 1011 0 0 S 0 96.6 545
00:04:46 1 1011 0 1 SW 0 96.6 539
00:07:47 1 1012 0 0 S 0 96.6 545
00:10:46 1 1011 0 0 W 0 96.6 538
00:13:44 1 1011 0 0 S 0 96.6 532
00:16:46 1 1012 0 0 W 0 96.6 527
00:19:47 1 1012 0 3 W 0 96.6 527
00:22:45 1 1012 0 0 O 0 96.6 528
00:25:46 1 1012 0 1 W 0 96.6 527
00:28:47 1 1012 0 0 W 0 96.6 527
00:31:46 1 1012 0 1 SW 0 96.6 521
00:34:47 1 1011 0 2 W 0 96.6 519
00:37:48 1 1011 0 0 NW 0 96.6 531
00:40:46 1 1011 0 1 S 0 96.6 528
00:43:48 1 1012 0 0 S 0 96.6 522
00:46:46 1 1012 0 0 O 0 96.6 510
00:49:45 1 1012 0 0 W 0 96.6 513
00:52:48 1 1011 0 0 SO 0 96.6 515
00:55:46 1 1012 0 0 N 0 96.6 521
00:58:48 1 1010 0 0 SO 0 96.6 524
01:01:45 1 1011 0 0 SO 0 96.6 518
01:04:46 1 1012 0 0 W 0 96.6 519
01:07:47 1 1010 0 0 SW 0 96.6 516
01:10:47 1 1012 0 0 W 0 96.6 516
01:13:47 1 1011 0 1 W 0 96.6 525
01:16:48 1 1012 0 0 NW 0 96.6 525
01:19:46 2 1012 0 0 NW 0 96.6 524
01:22:46 1 1011 0 0 SW 0 96.6 524
01:25:47 2 1011 0 0 SO 0 96.6 521
01:28:45 2 1010 0 0 O 0 96.6 524
01:31:47 2 1011 0 0 SO 0 96.6 521
01:34:47 2 1011 0 1 SO 0 96.6 527
01:37:48 2 1011 0 1 SW 0 96.6 521
01:40:47 2 1011 0 0 SO 0 96.6 516
01:43:46 2 1011 0 0 SW 0 96.6 512
01:46:46 2 1011 0 1 SW 0 96.6 521
01:49:45 2 1011 0 1 S 0 96.6 515
01:52:46 2 1011 0 2 S 0 96.6 524
01:55:47 2 1010 0 1 S 0 96.6 518
01:58:47 2 1011 0 1 W 0 96.6 518
02:01:48 2 1011 0 1 SW 0 96.6 521
02:04:45 2 1010 0 1 S 0 96.6 524
02:07:56 2 1010 0 2 SW 0 96.6 518
02:10:47 2 1010 0 1 SW 0 96.6 518
02:13:48 2 1010 0 0 SO 0 96.6 524
02:16:47 2 1010 0 1 SW 0 96.6 524
02:19:48 2 1010 0 6 S 0 96.6 522
02:22:46 2 1010 0 1 O 0 96.6 512
02:25:48 2 1010 0 3 NO 0 96.6 503
02:28:48 2 1010 0 3 W 0 96.6 512
02:31:46 2 1010 0 3 W 0 96.6 509
02:34:49 2 1010 0 0 SO 0 96.6 517
02:37:45 2 1010 0 2 W 0 96.6 515
02:40:47 2 1010 0 1 W 0 96.6 518
02:43:46 2 1010 0 1 W 0 96.6 519
02:46:46 2 1010 0 1 SW 0 96.6 507
02:49:45 2 1010 0 0 O 0 96.6 512
02:52:47 2 1010 0 2 SW 0 96.6 512
02:55:47 2 1010 0 2 SW 0 96.6 509
02:58:46 2 1010 0 1 SW 0 96.6 522
03:01:46 2 1011 0 1 S 0 96.6 512
03:04:47 2 1010 0 0 S 0 96.6 509
03:07:47 2 1010 0 3 SW 0 96.6 510
03:10:46 2 1010 0 0 S 0 96.6 515
03:13:47 2 1010 0 0 S 0 96.6 518
03:25:44 3 1010 0 0 O 0 96.6 512
03:28:48 3 1010 0 0 O 0 96.6 518
03:31:48 3 1010 0 0 NW 0 96.6 514
03:34:44 3 1010 0 0 O 0 96.6 514
03:37:48 3 1010 0 6 S 0 96.6 521
03:40:46 3 1010 0 1 SO 0 96.6 506
03:43:47 3 1010 0 0 NW 0 96.6 506
03:46:47 3 1010 0 4 NW 0 96.6 509
03:49:46 3 1010 0 4 SW 0 96.6 518
03:52:48 3 1010 0 4 NW 0 96.6 518
03:55:46 3 1010 0 0 W 0 96.6 518
03:58:48 3 1010 0 2 SW 0 96.6 509
04:01:46 3 1010 0 3 S 0 96.6 514
04:04:53 3 1010 0 0 SO 0 96.6 510
04:10:53 3 1010 0 0 SO 0 96.6 515
04:13:46 3 1010 0 3 SW 0 96.6 513
04:16:45 3 1010 0 3 S 0 96.6 513
04:19:47 3 1010 0 3 W 0 96.6 504
04:22:46 4 1010 0 0 NW 0 96.6 501
04:25:47 4 1010 0 1 SO 0 96.6 506
04:28:47 4 1010 0 1 W 0 96.6 512
04:31:48 4 1010 0 2 NW 0 96.6 515
04:34:47 4 1010 0 1 W 0 96.6 516
04:37:46 4 1010 0 2 W 0 96.6 504
04:40:46 4 1010 0 0 NW 0 96.6 513
04:43:47 4 1010 0 1 SW 0 96.6 509
04:46:47 4 1010 0 0 W 0 96.6 513
04:49:47 4 1010 0 1 SW 0 96.6 507
04:52:49 4 1010 0 0 SW 0 96.6 509
04:55:47 4 1010 0 0 S 0 96.6 516
04:58:47 4 1010 0 0 N 0 96.6 519
05:01:45 4 1010 0 2 S 0 96.6 512
05:04:46 4 1010 0 4 W 0 96.6 509
05:07:47 4 1010 0 4 W 0 96.6 506
05:10:48 4 1010 0 3 SW 0 96.6 503
05:13:46 4 1010 0 2 NW 0.2575 96.6 506
05:16:47 4 1011 0 2 NW 0 96.6 504
05:19:45 4 1010 0 4 W 0 96.6 503
05:22:46 4 1010 0 5 SW 0 96.6 504
05:25:48 4 1010 0 4 SW 0 96.6 506
05:28:48 4 1010 0 1 SW 0 96.6 501
05:31:47 4 1010 0 3 S 0 96.6 501
05:34:48 4 1010 0 0 SO 0 96.6 500
05:37:46 4 1010 0 4 SW 0 96.6 497
05:40:47 4 1010 0 2 SW 0 96.6 509
05:43:49 4 1010 0 1 NW 0 96.6 515
05:46:48 4 1010 0 2 NW 0 96.6 515
05:49:47 4 1010 0 0 SW 0 96.6 509
05:52:47 4 1010 0 0 S 0 96.6 509
05:55:48 4 1010 0 1 SW 0 96.6 503
05:58:46 4 1010 0 1 SW 0 96.6 507
06:01:46 4 1010 0 7 S 0 96.6 509
06:04:47 4 1010 0 4 SO 0 96.6 513
06:07:46 4 1010 0 2 S 0 96.6 514
06:10:46 4 1010 0 2 SW 0 96.6 515
06:13:48 4 1010 0 1 SW 0 96.6 512
06:16:45 4 1010 0 0 S 0 96.6 504
06:19:47 4 1010 0 1 NW 0 96.6 503
06:22:47 4 1010 0 3 O 0 96.6 509
06:25:46 4 1010 0 1 SW 0 96.6 518
06:28:46 4 1010 0 1 W 0 96.6 517
06:31:46 4 1010 0 1 SO 0 96.6 518
06:34:49 4 1010 0 0 NW 0 96.6 518
06:37:45 4 1010 0 1 N 0 96.6 524
06:40:45 4 1010 0 2 SW 0 96.6 521
06:43:46 4 1010 0 5 NW 0 96.6 511
06:46:46 4 1010 0 2 SW 0 96.6 509
06:49:47 4 1011 0 2 SW 0 96.6 512
06:52:47 4 1010 0 0 NO 0 96.6 516
06:55:47 4 1010 0 1 SW 0 96.6 518
06:58:46 4 1010 0 0 SO 0 96.6 516
07:01:45 4 1010 0 1 S 0 96.6 522
07:04:47 4 1010 0 1 SW 0 96.6 521
07:07:49 4 1010 0 0 SW 0 96.6 521
07:10:48 4 1010 0 0 NW 0 96.6 521
07:13:47 4 1010 0 1 NW 0 96.6 516
07:16:47 4 1010 0 0 SO 0 96.6 512
07:19:45 4 1010 0 1 NW 0 96.6 509
07:22:45 4 1010 0 3 W 0 96.6 514
07:25:46 4 1010 0 1 W 0 96.6 551
07:28:48 4 1010 0 2 S 0 96.6 564
07:31:45 4 1010 3 3 W 0 96.6 574
07:34:45 4 1010 5 1 S 0 96.6 577
07:37:48 4 1010 9 2 SO 0 96.6 573
07:40:46 4 1010 13 2 S 0 96.6 571
07:43:49 4 1010 18 0 O 0 96.6 579
07:46:45 4 1010 21 2 S 0 96.6 580
07:49:49 4 1010 26 3 SW 0 96.6 590
07:52:48 4 1010 29 1 SW 0 96.6 589
07:55:51 4 1010 38 3 SO 0 96.6 589
07:58:49 4 1010 44 4 W 0 96.6 589
08:01:50 4 1010 45 2 SW 0 96.6 591
08:04:49 4 1010 55 3 SO 0 96.6 595
08:07:51 4 1010 59 10 W 0 96.6 605
08:10:48 4 1010 71 1 SW 0 96.6 601
08:13:49 4 1010 85 4 W 0 96.6 603
08:16:46 4 1010 75 5 W 0 96.6 598
08:19:49 4 1010 86 3 W 0 96.6 588
08:22:46 4 1010 102 0 S 0 96.6 594
08:25:50 4 1010 114 0 S 0 96.6 606
08:28:47 4 1010 114 2 SW 0 96.6 615
08:31:46 4 1011 114 1 SW 0 96.6 611
08:34:45 4 1011 118 1 W 0 96.6 605
08:37:48 4 1011 125 2 S 0 96.6 597
08:40:46 4 1010 129 8 W 0 96.6 597
08:43:47 4 1010 125 4 W 0 96.6 598
08:46:50 5 1011 126 2 SW 0 96.6 595
08:49:48 5 1011 134 3 SW 0 96.6 591
08:52:47 5 1011 126 0 SW 0 96.6 585
08:55:51 5 1011 113 12 NW 0 96.6 578
08:58:47 5 1011 116 3 W 0 96.6 574
09:01:46 5 1011 104 5 W 0 96.6 571
09:04:47 5 1010 111 1 S 0 96.6 562
09:07:49 5 1011 114 2 NO 0 96.6 559
09:10:47 5 1011 117 0 SO 0 96.6 556
09:13:49 5 1011 125 0 SW 0 96.6 559
09:16:47 5 1011 125 3 SW 0 96.6 559
09:19:48 5 1011 135 0 S 0 96.6 559
09:22:47 5 1011 131 1 SW 0 96.6 550
09:25:46 5 1011 132 1 S 0 96.6 536
09:28:49 5 1011 127 2 NO 0 96.6 527
09:31:51 5 1011 134 1 SW 0 96.6 524
09:34:48 5 1011 147 10 SW 0 96.6 529
09:37:48 5 1012 160 1 SW 0 96.6 526
09:40:47 5 1011 144 0 SO 0 96.6 521
09:43:46 5 1011 90 5 S 0 96.6 406
09:46:47 5 1012 182 0 S 0 96.6 407
09:49:49 5 1011 164 3 NW 0 96.6 406
09:52:47 5 1011 175 1 S 0 96.6 404
09:55:46 5 1011 176 2 W 0 96.6 406
09:58:47 5 1011 161 6 SW 0 96.6 404
10:01:45 5 1011 151 1 NO 0 96.6 407
10:04:46 5 1011 158 4 W 0 96.6 404
10:07:49 5 1012 152 3 SW 0 96.6 404
10:10:47 5 1012 153 3 NW 0 96.6 404
10:13:49 5 1011 160 1 NW 0.2575 96.6 404
10:16:45 5 1012 170 1 W 0 96.6 404
10:19:47 5 1011 164 2 S 0 96.6 407
10:22:45 5 1011 162 4 O 0 96.6 403
10:25:48 5 1011 163 0 W 0 96.6 407
10:28:48 5 1011 165 3 SW 0 96.6 406
10:31:46 5 1012 164 0 S 0 96.6 401
10:34:46 5 1012 160 0 W 0 96.6 406
10:37:48 5 1012 170 5 W 0 96.6 404
10:40:48 5 1012 181 2 W 0 96.6 404
10:43:49 5 1012 153 0 SW 0 96.6 405
10:46:47 5 1011 169 3 W 0 96.6 404
10:49:48 6 1012 154 0 S 0 96.6 407
10:52:47 6 1011 169 0 O 0 96.6 404
10:55:45 6 1012 171 5 N 0 96.6 407
10:58:49 6 1012 171 3 SW 0 96.6 407
11:01:49 6 1011 173 4 SO 0 96.6 407
11:04:49 6 1012 172 9 SW 0 96.6 404
11:07:48 6 1012 181 1 W 0 96.6 407
11:10:47 6 1012 183 8 SW 0 96.6 404
11:13:49 6 1011 176 3 SW 0 96.6 404
11:16:49 6 1011 182 0 NW 0 96.6 405
11:19:47 6 1011 185 4 SW 0 96.6 406
11:22:48 6 1011 172 7 W 0 96.6 407
11:25:45 6 1011 183 1 SW 0 96.6 407
11:28:47 6 1012 184 0 S 0 96.6 406
11:31:46 6 1012 172 0 S 0 96.6 407
11:34:47 6 1011 168 5 SW 0 96.6 406
11:37:46 6 1012 156 4 N 0 96.6 407
11:40:48 6 1012 167 3 SO 0 96.6 404
11:43:47 6 1011 178 2 SW 0 96.6 407
11:46:47 6 1011 186 9 W 0 96.6 404
11:49:46 6 1010 177 0 SW 0 96.6 404
11:52:46 6 1011 172 1 W 0 96.6 404
11:55:47 6 1011 183 0 SO 0 96.6 407
11:58:47 6 1012 163 2 W 0 96.6 404
12:01:50 6 1011 176 3 NW 0 96.6 406
12:04:45 6 1012 171 3 W 0 96.6 407
12:07:48 6 1012 174 5 S 0 96.6 407
12:10:48 6 1012 173 1 S 0 96.6 407
12:13:47 6 1011 174 1 NW 0 96.6 404
12:16:45 6 1012 171 8 W 0 96.6 404
12:19:47 6 1011 170 0 SW 0 96.6 407
12:22:49 6 1011 172 3 SW 0 96.6 406
12:25:49 6 1011 179 0 SO 0 96.6 404
12:28:47 6 1011 182 1 NW 0 96.6 407
12:31:46 6 1011 167 1 W 0 96.6 404
12:34:49 6 1012 180 2 N 0 96.6 409
12:37:45 6 1011 174 4 W 0 96.6 415
12:40:47 6 1012 176 3 W 0 96.6 422
12:43:49 6 1011 161 2 NW 0 96.6 428
12:46:48 6 1011 173 2 S 0 96.6 424
12:49:48 6 1011 169 1 SO 0 96.6 424
12:52:47 6 1011 173 1 SW 0 96.6 427
12:55:45 6 1011 178 0 N 0 96.6 427
12:58:48 6 1011 190 0 S 0 96.6 448
13:01:49 6 1011 177 1 NW 0 96.6 446
13:04:48 6 1011 166 1 NO 0 96.6 454
13:07:46 6 1011 166 1 SW 0 96.6 445
13:10:45 6 1011 171 0 S 0 96.6 445
13:13:48 6 1011 150 3 SO 0 96.6 442
13:16:45 6 1011 151 1 S 0 96.6 451
13:19:48 6 1011 163 1 SO 0 96.6 457
13:22:46 6 1011 170 0 S 0 96.6 466
13:25:46 6 1011 156 2 SW 0 96.6 463
13:28:47 6 1011 156 1 0 96.6 460
13:31:47 6 1011 156 6 SO 0 96.6 460
13:34:47 6 1011 158 3 S 0 96.6 466
13:37:46 6 1011 147 3 S 0 96.6 469
13:40:48 6 1010 169 3 W 0 96.6 480
13:43:48 6 1010 171 2 SW 0 96.6 490
13:46:48 6 1010 163 2 NO 0 96.6 500
13:49:45 6 1011 161 3 S 0 96.6 504
13:52:48 6 1011 157 3 SW 0 96.6 506
13:55:47 6 1011 154 1 S 0 96.6 513
13:58:47 6 1010 164 2 SW 0 96.6 518
14:01:45 6 1011 145 1 S 0 96.6 524
14:04:46 6 1011 154 0 SW 0 96.6 518
14:07:49 6 1011 166 0 NW 0 96.6 527
14:10:46 6 1010 154 4 S 0 96.6 529
14:13:46 6 1010 146 1 SO 0 96.6 535
14:16:45 6 1010 137 0 O 0 96.6 530
14:19:47 6 1011 137 1 S 0 96.6 530
14:22:47 6 1011 129 1 S 0 96.6 530
14:25:48 6 1010 138 4 W 0 96.6 542
14:28:47 6 1010 146 1 W 0 96.6 554
14:31:48 6 1011 145 1 S 0 96.6 551
14:34:49 6 1010 126 0 S 0 96.6 554
14:37:48 6 1011 131 0 S 0 96.6 551
14:40:49 6 1010 117 0 S 0 96.6 553
14:43:49 6 1010 125 0 SO 0 96.6 553
14:46:49 6 1010 137 0 SW 0 96.6 560
14:49:48 6 1010 122 0 O 0 96.6 563
14:52:47 6 1010 120 1 S 0 96.6 568
14:55:49 6 1010 126 2 S 0 96.6 569
14:58:47 6 1010 149 6 W 0 96.6 570
15:01:47 6 1010 152 0 SO 0 96.6 562
15:04:46 6 1010 132 1 N 0 96.6 565
15:07:47 6 1011 137 1 W 0 96.6 565
15:10:47 6 1011 122 3 SW 0 96.6 568
15:13:47 6 1010 115 0 S 0 96.6 560
15:16:49 6 1010 105 0 NO 0 96.6 551
15:19:48 6 1010 101 0 SW 0 96.6 549
15:22:49 6 1010 89 1 SO 0 96.6 559
15:25:48 6 1010 95 0 NO 0 96.6 571
15:28:49 6 1010 99 2 SW 0 96.6 575
15:31:50 6 1011 77 2 NW 0 96.6 572
15:34:48 6 1010 60 1 NO 0 96.6 566
15:37:48 6 1010 62 3 S 0 96.6 575
15:40:47 6 1011 66 0 W 0 96.6 575
15:43:45 6 1011 71 0 NO 0 96.6 574
15:46:49 6 1011 69 0 NW 0 96.6 579
15:49:48 6 1011 62 2 NW 0 96.6 580
15:52:47 6 1011 67 0 W 0 96.6 586
15:55:49 6 1011 76 2 S 0 96.6 591
15:58:46 6 1010 69 1 O 0 96.6 595
16:01:48 6 1010 55 8 SO 0 96.6 587
16:04:47 6 1010 45 2 S 0 96.6 583
16:07:48 6 1010 33 3 SW 0 96.6 581
16:10:46 6 1011 25 1 SW 0 96.6 589
16:13:47 6 1010 22 1 NO 0 96.6 591
16:16:49 6 1010 18 4 SO 0 96.6 589
16:19:47 6 1010 21 5 S 0 96.6 585
16:22:45 6 1011 11 0 O 0 96.6 592
16:25:48 6 1010 6 4 NW 0 96.6 592
16:28:47 6 1010 5 1 NW 0 96.6 596
16:31:49 6 1010 3 1 SO 0 96.6 591
16:34:46 6 1011 0 2 NW 0 96.6 593
16:37:50 6 1010 0 1 SW 0 96.6 589
16:40:48 6 1010 0 6 W 0 96.6 591
16:43:47 6 1010 0 3 W 0 96.6 594
16:46:49 6 1011 0 0 NW 0 96.6 599
16:49:46 6 1010 0 0 SW 0 96.6 605
16:52:47 6 1010 0 0 W 0 96.6 599
16:55:47 6 1011 0 0 SW 0 96.6 593
16:58:46 6 1010 0 0 SO 0 96.6 592
17:01:45 6 1011 0 0 W 0.2575 96.6 597
17:04:47 6 1011 0 0 NW 0 96.6 600
17:07:46 6 1010 0 0 O 0 96.6 604
17:10:48 6 1011 0 0 SW 0 96.6 603
17:13:45 6 1010 0 0 O 0 96.6 606
17:16:48 6 1010 0 2 SW 0 96.6 606
17:19:48 6 1010 0 0 SO 0 96.6 603
17:22:45 6 1010 0 1 O 0 96.6 604
17:25:45 6 1010 0 4 W 0 96.6 597
17:28:46 6 1011 0 2 W 0 96.6 598
17:31:46 6 1010 0 1 NW 0 96.6 609
17:34:47 6 1011 0 2 W 0 96.6 609
17:37:48 6 1010 0 1 NW 0 96.6 609
17:40:46 6 1010 0 3 W 0 96.6 607
17:43:48 6 1011 0 3 W 0 96.6 604
17:46:46 6 1010 0 6 S 0 96.6 597
17:49:46 6 1011 0 0 SW 0 96.6 597
17:52:46 6 1011 0 2 W 0 96.6 603
17:55:47 6 1010 0 2 SW 0 96.6 603
17:58:44 6 1011 0 1 S 0 96.6 613
18:01:49 6 1010 0 0 SO 0 96.6 618
18:04:47 6 1010 0 0 SW 0 96.6 618
18:07:46 6 1010 0 0 NW 0 96.6 618
18:10:46 6 1010 0 5 S 0 96.6 615
18:13:52 6 1011 0 0 NW 0 96.6 606
18:16:46 6 1010 0 5 S 0 96.6 604
18:19:46 6 1010 0 4 SW 0 96.6 606
18:22:45 6 1010 0 1 0 96.6 602
18:25:47 6 1011 0 2 S 0 96.6 621
18:28:48 6 1011 0 0 SW 0 96.6 618
18:31:46 6 1010 0 1 S 0 96.6 616
18:34:48 6 1010 0 1 SW 0 96.6 603
18:37:47 6 1011 0 8 SW 0 96.6 612
18:40:46 6 1010 0 0 S 0 96.6 613
18:43:46 6 1010 0 2 S 0 96.6 611
18:46:47 6 1010 0 2 W 0 96.6 608
18:49:45 6 1010 0 0 O 0 96.6 592
18:52:50 6 1011 0 2 S 0 96.6 592
18:55:48 6 1010 0 4 NW 0 96.6 592
18:58:48 6 1010 0 0 SO 0 96.6 598
19:01:45 6 1010 0 3 SW 0 96.6 603
19:04:46 6 1011 0 0 NW 0 96.6 606
19:07:46 6 1012 0 6 S 0 96.6 606
19:10:48 6 1010 0 2 W 0 96.6 605
19:13:48 6 1010 0 1 NW 0 96.6 592
19:16:45 6 1011 0 3 N 0 96.6 572
19:19:45 6 1011 0 0 W 0 96.6 565
19:22:46 6 1010 0 2 NW 0 96.6 574
19:25:46 6 1011 0 4 S 0 96.6 580
19:28:45 6 1011 0 0 S 0 96.6 574
19:31:46 6 1010 0 3 S 0 96.6 565
19:34:47 6 1011 0 0 W 0 96.6 562
19:37:47 6 1010 0 11 SW 0 96.6 562
19:40:46 6 1011 0 0 S 0 96.6 550
19:43:47 6 1010 0 1 W 0 96.6 542
19:46:47 6 1011 0 3 SW 0 96.6 533
19:49:47 6 1010 0 1 W 0 96.6 541
19:52:47 6 1011 0 1 S 0 96.6 404
19:55:47 6 1010 0 0 W 0 96.6 407
19:58:45 6 1011 0 1 SW 0 96.6 404
20:01:45 6 1010 0 1 0 96.6 407
20:04:46 6 1011 0 1 W 0 96.6 404
20:07:47 6 1011 0 2 SW 0 96.6 407
20:10:45 6 1010 0 0 SO 0 96.6 404
20:13:47 6 1011 0 0 S 0 96.6 407
20:16:47 6 1010 0 0 SW 0 96.6 407
20:19:46 6 1010 0 3 W 0 96.6 408
20:22:45 6 1011 0 3 W 0 96.6 406
20:25:49 6 1010 0 0 NW 0 96.6 406
20:28:47 6 1011 0 8 SW 0 96.6 404
20:31:45 6 1011 0 0 O 0 96.6 407
20:34:45 6 1010 0 0 O 0 96.6 471
20:37:47 6 1010 0 0 NO 0 96.6 471
20:40:47 6 1010 0 2 SW 0 96.6 465
20:43:47 6 1010 0 1 S 0 96.6 477
20:46:46 6 1010 0 2 W 0 96.6 486
20:49:45 6 1010 0 5 W 0 96.6 480
20:52:47 6 1010 0 3 SO 0 96.6 480
20:55:48 6 1010 0 0 SO 0 96.6 492
20:58:46 6 1011 0 3 W 0 96.6 495
21:01:47 6 1010 0 0 W 0 96.6 489
21:04:48 6 1010 0 2 SW 0 96.6 489
21:07:50 6 1010 0 5 SW 0 96.6 493
21:10:48 6 1010 0 2 SW 0 96.6 498
21:13:46 6 1010 0 0 O 0 96.6 501
21:16:46 6 1011 0 6 W 0 96.6 507
21:19:46 6 1011 0 4 SW 0 96.6 512
21:22:48 6 1011 0 2 SW 0 96.6 516
21:25:46 6 1011 0 3 W 0 96.6 521
21:28:47 6 1010 0 1 SW 0 96.6 524
21:31:46 6 1011 0 2 S 0 96.6 527
21:34:45 6 1011 0 0 S 0 96.6 530
21:37:45 6 1011 0 2 SW 0 96.6 536
21:40:47 6 1011 0 5 NW 0 96.6 535
21:43:45 6 1010 0 1 S 0 96.6 538
21:46:46 6 1011 0 0 W 0 96.6 538
21:49:47 6 1010 0 1 NW 0 96.6 533
21:52:46 6 1010 0 2 W 0 96.6 536
21:55:47 6 1011 0 2 SW 0 96.6 542
21:58:46 6 1010 0 4 SW 0 96.6 548
22:01:49 6 1010 0 3 W 0 96.6 542
22:04:46 6 1011 0 3 W 0 96.6 542
22:07:46 6 1011 0 1 W 0 96.6 544
22:10:46 6 1010 0 0 SW 0 96.6 547
22:13:46 6 1011 0 1 W 0 96.6 550
22:16:45 6 1010 0 2 W 0 96.6 558
22:19:48 6 1010 0 2 SW 0 96.6 559
22:22:47 6 1010 0 2 SW 0 96.6 559
22:25:45 6 1010 0 0 W 0 96.6 562
22:28:49 6 1010 0 0 W 0 96.6 568
22:31:46 6 1011 0 1 S 0 96.6 565
22:34:45 6 1010 0 2 W 0 96.6 574
22:37:46 6 1011 0 0 S 0 96.6 574
22:40:46 6 1010 0 0 W 0 96.6 571
22:43:47 6 1011 0 1 NW 0 96.6 571
22:46:46 6 1010 0 1 SW 0 96.6 576
22:49:46 6 1010 0 0 S 0 96.6 574
22:52:47 6 1010 0 0 SW 0 96.6 578
22:55:46 6 1010 0 0 W 0 96.6 577
22:58:46 6 1010 0 0 S 0 96.6 577
23:01:47 6 1010 0 0 SO 0 96.6 571
23:04:47 6 1010 0 3 S 0 96.6 571
23:07:48 6 1010 0 0 SO 0 96.6 577
23:10:45 6 1010 0 3 W 0.2575 96.6 582
23:13:47 6 1010 0 3 NO 0 96.6 585
23:16:48 6 1010 0 0 SW 0 96.6 589
23:19:46 6 1010 0 1 NW 0 96.6 597
23:22:48 6 1010 0 2 W 0 96.6 592
23:25:46 6 1010 0 1 NW 0 96.6 586
23:28:47 6 1010 0 4 NW 0 96.6 588
23:31:45 6 1011 0 4 W 0 96.6 594
23:34:45 6 1011 0 4 W 0 96.6 597
23:37:48 6 1010 0 0 NW 0 96.6 592
23:40:48 6 1010 0 1 S 0 96.6 588
23:43:49 6 1010 0 1 SW 0 96.6 597
23:46:47 6 1010 0 2 SW 0 96.6 594
23:49:45 6 1011 0 0 S 0 96.6 600
23:52:47 6 1011 0 1 SW 0 96.6 594
23:55:47 6 1010 0 2 W 0 96.6 597
23:58:47 6 1010 0 4 SW 0 96.6 594

Letzte Änderung : 04-Jan-2022
Copyright Jens Köhler, Wolfsburg, Obere Dorfstraße 10d